Location: Poughquag
(41.6090°N, 73.6820°W)
Time: 03:41:38
(UTC-04:00)

Courier 1B - All Passes

Search period start: 29 September 2020 00:00
Search period end: 09 October 2020 00:00
Orbit: 962 x 1209 km, 28.3° (Epoch: 28 September)

Date Brightness Start Highest point End Pass type
(mag) Time Alt. Az. Time Alt. Az. Time Alt. Az.
29 Sep - 00:07:51 10° SW 00:14:02 26° S 00:20:01 10° ESE night (unlit)
29 Sep - 02:01:11 10° WSW 02:07:25 28° S 02:13:22 10° SE night (unlit)
29 Sep - 03:55:52 10° WSW 04:00:34 18° SSW 04:05:07 10° SSE visible
29 Sep - 21:24:35 10° S 21:27:10 12° SSE 21:29:45 10° SE visible
29 Sep - 23:14:22 10° SW 23:20:20 24° SSE 23:26:11 10° ESE night (unlit)
30 Sep - 01:07:18 10° WSW 01:13:44 29° S 01:19:54 10° SE night (unlit)
30 Sep - 03:01:33 10° WSW 03:07:00 22° SSW 03:12:14 10° SSE visible
30 Sep - 22:21:04 10° SSW 22:26:39 21° SSE 22:32:10 10° ESE visible
01 Oct - 00:13:30 10° SW 00:20:01 29° S 00:26:19 10° ESE night (unlit)
01 Oct - 02:07:24 10° WSW 02:13:22 25° SSW 02:19:06 10° SE night (unlit)
01 Oct - 04:03:29 10° SW 04:06:23 13° SSW 04:09:14 10° S visible
01 Oct - 21:28:02 10° SSW 21:32:59 18° SSE 21:37:55 10° ESE visible
01 Oct - 23:19:50 10° SW 23:26:18 28° S 23:32:36 10° ESE night (unlit)
02 Oct - 01:13:23 10° WSW 01:19:42 28° S 01:25:48 10° SE night (unlit)
02 Oct - 03:08:29 10° WSW 03:12:51 16° SSW 03:17:07 10° SSE night (unlit)
02 Oct - 20:35:24 10° S 20:39:20 15° SSE 20:43:18 10° SE visible
02 Oct - 22:26:16 10° SW 22:32:34 27° S 22:38:47 10° ESE visible
03 Oct - 00:19:28 10° WSW 00:26:00 30° S 00:32:21 10° SE night (unlit)
03 Oct - 02:13:59 10° WSW 02:19:17 20° SSW 02:24:24 10° SSE night (unlit)
03 Oct - 19:43:48 10° SSE 19:45:44 11° SSE 19:47:40 10° SE visible
03 Oct - 21:32:54 10° SW 21:38:51 24° SSE 21:44:48 10° ESE visible
03 Oct - 23:25:38 10° WSW 23:32:16 30° S 23:38:45 10° ESE night (unlit)
04 Oct - 01:19:44 10° WSW 01:25:38 24° SSW 01:31:21 10° SE night (unlit)
04 Oct - 03:17:12 10° SW 03:18:38 11° SSW 03:20:03 10° SSW night (unlit)
04 Oct - 20:39:43 10° SSW 20:45:09 21° SSE 20:50:38 10° ESE visible
04 Oct - 22:31:56 10° SW 22:38:30 30° S 22:45:03 10° ESE visible
05 Oct - 00:25:40 10° WSW 00:31:57 27° S 00:38:05 10° SE night (unlit)
05 Oct - 02:21:16 10° SW 02:25:05 14° SSW 02:28:50 10° S night (unlit)
05 Oct - 19:46:52 10° SSW 19:51:30 17° SSE 19:56:13 10° ESE visible
05 Oct - 21:38:21 10° SW 21:44:46 28° S 21:51:13 10° ESE visible
05 Oct - 23:31:43 10° WSW 23:38:13 29° S 23:44:38 10° SE night (unlit)
06 Oct - 01:26:33 10° WSW 01:31:30 18° SSW 01:36:21 10° SSE night (unlit)
06 Oct - 18:54:32 10° S 18:57:54 13° SSE 19:01:19 10° SE visible
06 Oct - 20:44:55 10° SW 20:51:02 26° SSE 20:57:15 10° ESE visible
06 Oct - 22:37:53 10° WSW 22:44:28 30° S 22:51:03 10° SE visible
07 Oct - 00:32:11 10° WSW 00:37:50 22° SSW 00:43:24 10° SSE night (unlit)
07 Oct - 19:51:41 10° SSW 19:57:21 23° SSE 20:03:09 10° ESE visible
07 Oct - 21:44:10 10° SW 21:50:43 30° S 21:57:20 10° ESE visible
07 Oct - 23:38:03 10° WSW 23:44:08 25° SSW 23:50:11 10° SE night (unlit)
08 Oct - 01:34:30 10° SW 01:37:16 12° SSW 01:40:00 10° S night (unlit)
08 Oct - 18:58:41 10° SSW 19:03:42 19° SSE 19:08:51 10° ESE visible
08 Oct - 20:50:35 10° SW 20:56:58 29° S 21:03:31 10° ESE visible
08 Oct - 22:44:05 10° WSW 22:50:26 27° S 22:56:47 10° SE visible
